Change the Weather History Date:

Wednesday, November 16, 2011

  Actual Average Record
Temperature  
Mean Temperature 34 °F -  
Max Temperature 43 °F 48 °F 73 °F (2001)
Min Temperature 23 °F 30 °F 7 °F (2014)
Degree Days  
Heating Degree Days 32    
Moisture  
Dew Point 15 °F    
Average Humidity 51    
Maximum Humidity 75    
Minimum Humidity 25    
Precipitation  
Precipitation 0.00 in - - ()
Sea Level Pressure  
Sea Level Pressure 30.25 in    
Wind  
Wind Speed 6 mph (WNW)    
Max Wind Speed 12 mph    
Max Gust Speed -    
Visibility 10 miles    
Events      
Averages and records for this station are not official NWS values.
T = Trace of Precipitation, MM = Missing Value Source: NWS Daily Summary

Daily Weather History Graph

Daily Weather History Graph

Search for Another Location

Airport or City:

Trip Planner

Search our weather history database for the weather conditions in past years. The results will help you decide how hot, cold, wet, or windy it might be!

Date:

Astronomy

Nov. 16, 2011 Rise Set
Actual Time 7:12 AM CST 5:04 PM CST
Civil Twilight 6:42 AM CST 5:33 PM CST
Nautical Twilight 6:09 AM CST 6:06 PM CST
Astronomical Twilight 5:36 AM CST 6:39 PM CST
Moon 10:19 PM CST (11/16) 11:48 AM CST (11/16)
Length of Visible Light 10h 50m
Length of Day
9h 51m
Waning Gibbous, 70% of the Moon is Illuminated
Nov 16
Waning Gibbous
Nov 18
Last Quarter
Nov 25
New
Dec 2
First Quarter
Dec 10
Full

Hourly Weather History & Observations

Time (CST) Temp. Windchill Dew Point Humidity Pressure Visibility Wind Dir Wind Speed Gust Speed Precip Events Conditions
12:55 AM 32.4 °F 26.0 °F 15.1 °F 49% 30.10 in 10.0 mi NNW 6.9 mph - N/A   Clear
1:55 AM 29.7 °F 22.0 °F 16.7 °F 59% 30.12 in 10.0 mi WNW 8.1 mph - N/A   Clear
2:55 AM 26.1 °F 17.6 °F 18.0 °F 71% 30.12 in 10.0 mi NW 8.1 mph - N/A   Clear
3:55 AM 25.3 °F 16.0 °F 17.8 °F 73% 30.12 in 10.0 mi WNW 9.2 mph - N/A   Scattered Clouds
4:55 AM 25.7 °F - 14.7 °F 63% 30.15 in 10.0 mi Calm Calm - N/A   Clear
5:55 AM 27.3 °F 23.4 °F 16.2 °F 63% 30.16 in 10.0 mi NNE 3.5 mph - N/A   Clear
6:55 AM 25.5 °F - 16.7 °F 69% 30.19 in 10.0 mi Calm Calm - N/A   Mostly Cloudy
7:55 AM 29.1 °F 25.4 °F 16.2 °F 58% 30.23 in 10.0 mi NNW 3.5 mph - N/A   Mostly Cloudy
8:55 AM 31.5 °F 28.1 °F 16.5 °F 54% 30.27 in 10.0 mi WNW 3.5 mph - N/A   Mostly Cloudy
9:55 AM 36.3 °F 32.5 °F 15.1 °F 42% 30.28 in 10.0 mi North 4.6 mph - N/A   Clear
10:55 AM 38.1 °F 35.7 °F 14.5 °F 38% 30.30 in 10.0 mi Variable 3.5 mph - N/A   Clear
11:55 AM 40.5 °F 34.6 °F 13.1 °F 33% 30.29 in 10.0 mi WNW 9.2 mph - N/A   Clear
12:55 PM 41.9 °F 36.9 °F 12.7 °F 31% 30.28 in 10.0 mi West 8.1 mph - N/A   Partly Cloudy
1:55 PM 43.9 °F 39.3 °F 9.7 °F 25% 30.27 in 10.0 mi WNW 8.1 mph - N/A   Clear
2:55 PM 43.7 °F 37.7 °F 10.0 °F 25% 30.27 in 10.0 mi NW 11.5 mph - N/A   Clear
3:55 PM 43.0 °F 38.8 °F 9.0 °F 25% 30.28 in 10.0 mi West 6.9 mph - N/A   Clear
4:55 PM 39.4 °F 33.8 °F 11.3 °F 32% 30.28 in 10.0 mi WSW 8.1 mph - N/A   Clear
5:55 PM 37.9 °F 33.5 °F 12.9 °F 36% 30.29 in 10.0 mi West 5.8 mph - N/A   Scattered Clouds
6:55 PM 35.6 °F 29.9 °F 18.0 °F 49% 30.31 in 10.0 mi West 6.9 mph - N/A   Partly Cloudy
7:55 PM 34.0 °F 28.0 °F 21.4 °F 60% 30.32 in 10.0 mi WNW 6.9 mph - N/A   Mostly Cloudy
8:55 PM 29.7 °F 24.7 °F 22.5 °F 75% 30.35 in 10.0 mi NW 4.6 mph - N/A   Mostly Cloudy
9:55 PM 26.8 °F 18.5 °F 15.4 °F 62% 30.35 in 10.0 mi WNW 8.1 mph - N/A   Clear
10:55 PM 24.1 °F 19.7 °F 13.1 °F 63% 30.35 in 10.0 mi West 3.5 mph - N/A   Clear
11:55 PM 23.7 °F - 12.4 °F 62% 30.35 in 10.0 mi Calm Calm - N/A   Clear